Flag for Germany Weather past 2 weeks in Nuremberg, Bavaria, Germany

Now
63 °F

Sunny.


Feels Like: 63 °F
Forecast: 47 / 68 °F
Wind: 1 mph from North

Location: Nuernberg

Current Time: Oct 2, 2014 at 7:29:14 PM

Latest Report: Oct 2, 2014 at 6:50 PM


Visibility: 10 mi

Pressure: 30.33 "Hg

Humidity: 88%

Dew point: 59 °F

Location of NurembergLocation

Historic Weather in Nuremberg — Graph

°F

Nuremberg temperature yesterday

Maximum temperature yesterday: 68 °F (at 2:50 PM)
Minimum temperature yesterday: 55 °F (at 5:50 AM)
Average temperature yesterday: 59 °F

Past Weeks' High & Low Weather Summary

 TemperatureHumidityPressure
High75 °F (Sep 18, 2:50 PM)100% (Sep 17, 11:50 PM)30.39 "Hg (Sep 17, 11:50 PM)
Low36 °F (Sep 24, 5:20 AM)44% (Sep 29, 4:50 PM)29.89 "Hg (Sep 17, 6:20 PM)
Average57 °F87%30.14 "Hg
* Reported Sep 17 6:20 PM — Oct 2 6:20 PM, Nuremberg, Weather by CustomWeather, © 2014

Note: Actual official high and low records may vary slightly from our data, if they occured in-between our weather recording intervals... More about our weather records

Advertising

Nuremberg weather history for previous 24 hours

 ConditionsComfort  
Time TempWeatherWind HumidityBarometerVisibility
6:20 PM
Oct 2
64 °FScattered clouds.1 mph78%30.33 "HgN/A
5:50 PM64 °FScattered clouds.2 mph78%30.33 "HgN/A
5:20 PM64 °FPartly sunny.2 mph73%30.33 "HgN/A
4:50 PM68 °FBroken clouds.3 mph64%30.33 "HgN/A
4:20 PM68 °FScattered clouds.2 mph60%30.33 "HgN/A
3:50 PM68 °FPassing clouds.1 mph69%30.36 "HgN/A
3:20 PM68 °FScattered clouds.2 mph69%30.36 "HgN/A
2:50 PM68 °FPassing clouds.3 mph73%30.36 "HgN/A
2:20 PM66 °FPassing clouds.5 mph78%30.36 "HgN/A
1:50 PM64 °FPassing clouds.5 mph68%30.36 "HgN/A
1:20 PM63 °FPassing clouds.5 mph100%30.39 "HgN/A
12:50 PM61 °FPassing clouds.5 mph100%30.39 "Hg6 mi
12:20 PM57 °FScattered clouds.3 mph100%30.39 "Hg5 mi
11:50 AM57 °FBroken clouds.2 mph100%30.39 "Hg4 mi
11:20 AM55 °FFog.1 mph100%30.39 "Hg1 mi
10:50 AM54 °FFog.2 mph100%30.39 "Hg0 mi
10:20 AM54 °FFog.1 mph100%30.39 "Hg0 mi
9:50 AM54 °FFog.1 mph100%30.39 "Hg0 mi
9:20 AM52 °FFog.2 mph100%30.39 "Hg0 mi
8:50 AM50 °FFog.1 mph100%30.39 "Hg0 mi
8:20 AM50 °FFog.3 mph100%30.39 "Hg0 mi
7:50 AM50 °FFog.2 mph100%30.39 "Hg0 mi
7:20 AM50 °FFog.1 mph100%30.39 "Hg0 mi
6:50 AM50 °FPassing clouds.3 mph100%30.36 "Hg0 mi
6:20 AM50 °FFog.1 mph100%30.36 "Hg0 mi
5:50 AM50 °FFog.2 mph100%30.36 "Hg0 mi
5:20 AM50 °FFog.1 mph100%30.36 "Hg0 mi
4:50 AM50 °FFog.1 mph100%30.36 "Hg1 mi
4:20 AM52 °FFog.1 mph100%30.36 "Hg0 mi
3:50 AM52 °FFog.1 mph100%30.36 "Hg0 mi
3:20 AM52 °FLight fog.1 mph100%30.36 "Hg6 mi
2:50 AM52 °FLight fog.1 mph100%30.36 "HgN/A
2:20 AM54 °FLight fog.2 mph100%30.36 "HgN/A
1:50 AM54 °FLight fog.2 mph100%30.36 "HgN/A
1:20 AM55 °FLight fog.1 mph100%30.36 "HgN/A
12:50 AM55 °FLight fog.2 mph100%30.36 "HgN/A
12:20 AM55 °FFog.1 mph100%30.36 "HgN/A
11:50 PM
Oct 1
57 °FClear.1 mph100%30.36 "Hg10 mi
11:20 PM57 °FClear.1 mph100%30.36 "Hg10 mi
10:50 PM59 °FClear.2 mph94%30.33 "Hg10 mi
10:20 PM57 °FClear.1 mph100%30.33 "Hg10 mi
9:50 PM59 °FClear.1 mph100%30.33 "Hg10 mi
9:20 PM57 °FFog.2 mph100%30.33 "HgN/A
8:50 PM57 °FFog.2 mph100%30.33 "HgN/A
8:20 PM59 °FFog.1 mph100%30.33 "HgN/A
7:50 PM59 °FPassing clouds.2 mph100%30.33 "HgN/A
7:20 PM63 °FPassing clouds.2 mph88%30.30 "HgN/A
Weather by CustomWeather, © 2014

See weather overviewHow to use our weather pages